About Lemur-2 Embrionovis
Group: 3 satellites
Description loading...
Live Position
Loading 3D Globe...
Upcoming Passes
Altitude History
Altitude vs Time
uPlot chart will show altitude changes over time
Two-Line Element Set
1 56970U 23084AQ 26061.62875846 .00009405 00000-0 28363-3 0 9998
2 56970 97.6114 202.0846 0008697 340.0401 20.0500 15.34493132151325
Epoch: Mar 2, 2026 •
Age: 26 hours
Current Status
Altitude 474.0 km
Velocity 7.63 km/s
Sub-Earth Point -44.11°S,
21.3°E
Launch Date Jun 12, 2023
Age 2.7 years
Type other
Technical Details
Classification Payload
Mass 10.00 kg
Dry Mass 10.00 kg
Total Mass 10.00 kg
Length 0.30 m
Diameter 0.20 m
Span 0.30 m
Shape Box
Manufacturer SPIREG
Bus Type Cubesat 6U
Phase Status In Orbit
Owner/State SPIRE/ORORA/US
Large Constellations
Loading constellations...